Tracking 22882 objects as of 18-Apr-2021
HD Live streaming from Space Station
objects crossing your sky now

SOLRAD 11A

Track SOLRAD 11A now!
SOLRAD 11A is classified as:


NORAD ID: 8748
Int'l Code: 1976-023C
Perigee: 117,059.7 km
Apogee: 119,892.2 km
Inclination: 26.8 °
Period: 7,316.9 minutes
Semi major axis: 124846 km
RCS: Unknown
Launch date: March 15, 1976
Source: United States (US)
Launch site: AIR FORCE EASTERN TEST RANGE (AFETR)
aabbcc
Your satellite tracking list
Your tracking list is empty




NASA's NSSDC Master Catalog

Two Line Element Set (TLE):
1 08748U 76023C   21102.43820062 -.00000972  00000-0  00000-0 0  9995
2 08748  26.8154 335.5851 0113436  87.5332   4.3681  0.19680494  1735
Source of the keplerian elements: AFSPC